Regional Weather Roundup
Issued by NWS Boston, MA

Home | Current Version | Previous Version | Text Only | Print | Product List | Glossary On
Versions: 1 2 3 4 5 6 7 8 9 10 11 12 13 14 15 16 17 18 19 20 21 22 23 24 25 26 27 28 29 30 31 32 33 34 35 36 37 38 39 40 41 42 43 44 45 46 47 48 49 50
000
ASUS41 KBOX 240810
RWRBOX

REGIONAL WEATHER ROUNDUP
NATIONAL WEATHER SERVICE TAUNTON MA
300 AM EST MON NOV 24 2014

NOTE:  "FAIR" INDICATES FEW OR NO CLOUDS BELOW 12,000 FEET WITH NO
SIGNIFICANT WEATHER AND/OR OBSTRUCTIONS TO VISIBILITY.  THE FOLLOWING
OBSERVATION LOCATIONS DO NOT REPORT PRESENT WEATHER...PROVINCETOWN...
SMITHFIELD...BLOCK ISLAND...KEENE...AND OXFORD.

MAZALL-240900-
EASTERN MASSACHUSETTS

CITY           SKY/WX    TMP DP  RH WIND       PRES   REMARKS
BOSTON         CLOUDY    45  41  87 E3        30.04F
BEVERLY        MOCLDY    43  37  79 E5        30.03F
LAWRENCE       MOCLDY    44  35  70 CALM      30.05F
BEDFORD        CLOUDY    39  34  82 CALM      30.01F
BLUE HILL        N/A     46  46 100 SE16      30.01F
NORWOOD        CLOUDY    39  36  89 CALM      30.03F
MARSHFIELD     FOG      N/A N/A N/A SE7       30.06F VSB 1/4
PLYMOUTH       PTCLDY    50  50 100 SE5       30.05F
TAUNTON        MOCLDY    42  40  92 CALM      30.02F
NEW BEDFORD    MOCLDY    49  49 100 SE6       30.03F
$$

MAZALL-240900-
CAPE COD AND THE ISLANDS

CITY           SKY/WX    TMP DP  RH WIND       PRES   REMARKS
FALMOUTH       CLOUDY    54  54 100 SE15G21   30.05F
HYANNIS        CLOUDY    55  52  89 SE8G18    30.05F
CHATHAM        MOCLDY    52  51  97 S8        30.08F
PROVINCETOWN   CLOUDY    50  48  93 SE9       30.07F
NANTUCKET      CLOUDY    52  50  93 SE13      30.07F
MARTHAS VNYRD  MOCLDY    55  53  93 SE15      30.04F
$$

MAZALL-240900-
CENTRAL AND WESTERN MASSACHUSETTS

CITY           SKY/WX    TMP DP  RH WIND       PRES   REMARKS
WORCESTER      CLOUDY    43  41  93 SE7       29.98F
FITCHBURG      CLOUDY    39  33  79 CALM      30.02F
ORANGE         CLOUDY    35  31  85 CALM      29.97F
SPRINGFIELD    CLOUDY    42  33  71 NE5       29.95F
WESTFIELD      CLOUDY    41  32  70 N3        29.94F
NORTH ADAMS    CLOUDY    45  36  70 E12       29.91F
PITTSFIELD     LGT RAIN  47  43  86 SE9       29.88F FOG
$$

RIZALL-240900-
RHODE ISLAND

CITY           SKY/WX    TMP DP  RH WIND       PRES   REMARKS
PROVIDENCE     CLOUDY    42  38  85 CALM      30.02F
NEWPORT        CLOUDY    56  52  86 SE12      30.01F
BLOCK ISLAND   CLOUDY    57  52  82 SE16G22   29.99F
SMITHFIELD     CLOUDY    46  41  81 SE8       30.01F
WESTERLY       CLOUDY    56  53  90 SE10      29.99F
$$

CTZALL-240900-
CONNECTICUT

CITY           SKY/WX    TMP DP  RH WIND       PRES   REMARKS
BRADLEY INTL   CLOUDY    44  33  65 N6        29.95F
HARTFORD       LGT RAIN  44  38  79 SW6       29.94F
BRIDGEPORT     LGT RAIN  51  50  96 E9        29.91F FOG
DANBURY        RAIN      45  42  89 N3        29.90F FOG
GROTON         CLOUDY    56  53  90 SE17      29.96F
NEW HAVEN      LGT RAIN  57  50  77 E12       29.92F
CHESTER        LGT RAIN  52  50  93 SE7       29.95F
MERIDEN        LGT RAIN  42  40  92 VRB3      29.93F FOG
WILLIMANTIC    CLOUDY    40  32  73 CALM      29.98F
OXFORD         CLOUDY    52  48  87 SE15G21   29.92F
$$

MEZ002-015-021-024-NHZ003-005-008-011-012-014-VTZ005-008-240900-
NORTHERN NEW ENGLAND

CITY           SKY/WX    TMP DP  RH WIND       PRES   REMARKS
PORTLAND ME    PTCLDY    39  37  92 CALM      30.05F FOG
BANGOR ME      MOCLDY    38  37  97 CALM      30.09F
CONCORD NH     CLOUDY    36  34  92 CALM      30.02F
MANCHESTER NH  CLOUDY    40  33  76 CALM      30.01F
NASHUA NH      CLOUDY    40  35  82 CALM      30.03F
PORTSMOUTH NH  CLOUDY    42  36  79 SE6       30.04F
JAFFREY NH     CLOUDY    34  30  85 CALM      29.98F
KEENE NH       CLOUDY    36  30  80 CALM      29.98F
BURLINGTON VT  CLOUDY    49  37  63 SE9       29.83F
MT. WASHINGTON FOG       32  32 100 S38G44      N/A  VSB 1/8 WCI  16
$$

NYZ052-076-240900-
EASTERN NEW YORK

CITY           SKY/WX    TMP DP  RH WIND       PRES   REMARKS
ALBANY         LGT RAIN  50  41  71 S10       29.85F
NEW YORK CITY  RAIN      57  56  96 SE16G22   29.84F FOG
$$

ANZALL-240900-
MARINE OBSERVATIONS

STATION/POSITION TIME  TEMP    WIND        PRES    VSBY  WAVE
                       AIR SEA DIR/SP/G                  HT/PER
                 (UTC) (F)     (DEG/KT/KT) (MB)    (MI)  (FT/S)
BOSTON BUOY      0750   50 50  150/ 14/ 16 1017.5F         1/ 9
BUZZARDS BAY     0800          140/ 19/ 20 1016.7F
NANTUCKET SOUND  0750   51 48  140/ 14/ 14 1017.8F         1
MASS BAY-STELLWA 0704   49 50  160/  8/ 10   N/A    1 7/8  1/ 8
ISLE OF SHOALS   0800   49     160/ 11/ 12 1016.9F
S OF BLOCK IS    0738      56                N/A           4/ 7
$$

......................KEY.........................
  SKY/WX - SKY CONDITION/PRESENT WEATHER
  TMP    - TEMPERATURE IN FAHRENHEIT
  DWPT   - DEWPOINT IN FAHRENHEIT
  RH     - RELATIVE HUMIDITY IN PERCENT
  WIND   - DIRECTION AND SPEED IN MPH
  PRES   - MEAN SEA LEVEL PRESSURE IN INCHES OF HG
  WCI    - WIND CHILL INDEX
  VSB    - VISIBILITY IN MILES
  HX     - HEAT INDEX
  TC     - TEMPERATURE IN CELSIUS
  VRB    - VARIABLE WIND DIRECTION
  N/A    - NOT AVAILABLE


USA.gov is the U.S. government's official web portal to all federal, state and local government web resources and services.